sat.trackr.live / text

‹ back to catalog

STARLINK-36131

NORAD 67032 · 2025-294C

PAYLOAD ACTIVE UNKNOWN

§ Identity

Operator
Country
US
Launch date
2025-12-11
Launch site
AFETR
Launch vehicle
Mass (kg)
RCS (m²)

Purposes: comms

External: N2YO · Heavens-Above · Gunter

§ Orbital elements

Epoch: 2026-05-25T04:46:57.620928Z

Period
94.27 min
Inclination
42.9999°
Eccentricity
0.0000696
Mean motion
15.27581355 rev/d
Perigee alt
482.6 km
Apogee alt
483.5 km
Semi-major
6,861.2 km
B*
8.5032e-4
RAAN
325.7120°
Arg perigee
25.7703°
Mean anomaly
334.3183°
Rev number
2,650

§ Raw data

STARLINK-361311 67032U 25294C   26145.19927802  .00023211  00000+0  85032-3 0  99952 67032  42.9999 325.7120 0000696  25.7703 334.3183 15.27581355 26507

JSON: /api/v1/satellites/67032 · /tle

For live sub-satellite position, see the globe view (requires WebGL).

§ Visibility from observer

Set your observer location to see the next 7 days of passes ≥ 10°. The values pass through the URL so the page stays shareable.

No JS? Fill the form by hand. The geolocation button needs JavaScript.